Regional Weather Roundup
Issued by NWS

Home | Current Version | Previous Version | Graphics & Text | Print | Product List | Glossary On
Versions: 1 2 3 4 5 6 7 8 9 10 11 12 13 14 15 16 17 18 19 20 21 22 23 24 25 26 27 28 29 30 31 32 33 34 35 36 37 38 39 40 41 42 43 44 45 46 47 48 49 50
000
ASUS43 KBIS 261310
RWRND

NORTH DAKOTA REGIONAL WEATHER ROUNDUP
NATIONAL WEATHER SERVICE BISMARCK ND
800 AM CDT FRI MAY 26 2017

NOTE: "FAIR" INDICATES FEW OR NO CLOUDS BELOW 12,000 FEET WITH NO
SIGNIFICANT WEATHER AND/OR OBSTRUCTIONS TO VISIBILITY.


NDZ001>003-009>011-017-261400-
NORTHWEST NORTH DAKOTA

CITY           SKY/WX    TMP DP  RH WIND       PRES   REMARKS
WILLISTON      CLOUDY    52  41  66 W17       29.73R
MINOT          CLOUDY    54  44  69 W13       29.66R
MINOT AFB      CLOUDY    54  43  66 W17       29.64R
$$

NDZ018>021-031>035-040>046-261400-
SOUTHWEST NORTH DAKOTA

CITY           SKY/WX    TMP DP  RH WIND       PRES   REMARKS
BISMARCK       CLOUDY    54  42  64 W15       29.75R
DICKINSON      CLOUDY    48  37  65 W23G29    29.76R
GARRISON         N/A     51  41  68 W18       29.69R
HETTINGER ARPT SUNNY     47  38  71 W17       29.82S
$$

NDZ004>008-012>016-024-026-027-054-261400-
NORTHEAST NORTH DAKOTA

CITY           SKY/WX    TMP DP  RH WIND       PRES   REMARKS
GRAND FORKS    MOSUNNY   58  48  69 W13       29.62R
GRND FRKS AFB  SUNNY     57  47  68 W9        29.62R
DEVILS LAKE    FAIR      53  46  77 W15       29.66R
$$

NDZ022-023-025-028>030-036>039-047>053-261400-
SOUTHEAST NORTH DAKOTA

CITY           SKY/WX    TMP DP  RH WIND       PRES   REMARKS
FARGO          SUNNY     57  48  72 W10       29.66R
JAMESTOWN      FAIR      52  45  77 W12       29.69R
$$





USA.gov is the U.S. government's official web portal to all federal, state and local government web resources and services.